Flag for India Weather past 2 weeks in Pudukkottai, Tamil Nadu, India

Now
82 °F

Passing clouds.


Feels Like: 87 °F
Forecast: 74 / 94 °F
Wind: 7 mph from Southeast

Location: Tiruchchirapalli

Current Time: Oct 2, 2014 at 11:03:18 PM

Latest Report: Oct 2, 2014 at 10:40 PM


Visibility: 4 mi

Pressure: 29.86 "Hg

Humidity: 70%

Dew point: 72 °F

Location of PudukkottaiLocation

Historic Weather in Pudukkottai — Graph

°F

Pudukkottai temperature yesterday

Maximum temperature yesterday: 97 °F (at 1:40 PM)
Minimum temperature yesterday: 79 °F (at 12:10 AM)
Average temperature yesterday: 86 °F

Past Weeks' High & Low Weather Summary

 TemperatureHumidityPressure
High100 °F (Sep 19, 2:40 PM)94% (Sep 22, 5:10 AM)29.92 "Hg (Sep 22, 5:10 AM)
Low77 °F (Sep 24, 4:40 AM)35% (Sep 19, 2:40 PM)29.62 "Hg (Sep 20, 3:40 PM)
Average87 °F64%29.79 "Hg
* Reported Sep 17 9:40 PM — Oct 2 9:40 PM, Pudukkottai, Weather by CustomWeather, © 2014

Note: Actual official high and low records may vary slightly from our data, if they occured in-between our weather recording intervals... More about our weather records

Advertising

Pudukkottai weather history for previous 24 hours

 ConditionsComfort  
Time TempWeatherWind HumidityBarometerVisibility
9:40 PM
Oct 2
86 °FPassing clouds.7 mph70%29.86 "Hg4 mi
9:10 PM86 °FPassing clouds.9 mph70%29.86 "Hg4 mi
8:40 PM86 °FPassing clouds.10 mph70%29.83 "Hg4 mi
8:10 PM88 °FPassing clouds.12 mph62%29.83 "Hg4 mi
7:40 PM90 °FPassing clouds.13 mph55%29.83 "Hg4 mi
7:10 PM90 °FPassing clouds.7 mph52%29.80 "Hg4 mi
6:40 PM90 °FPassing clouds.7 mph52%29.80 "Hg4 mi
6:10 PM91 °FPassing clouds.8 mph49%29.77 "Hg4 mi
5:40 PM93 °FPassing clouds.7 mph47%29.77 "Hg4 mi
5:10 PM93 °FPassing clouds.6 mph47%29.77 "Hg5 mi
4:40 PM95 °FPassing clouds.6 mph44%29.77 "Hg5 mi
4:10 PM95 °FPassing clouds.6 mph44%29.77 "Hg5 mi
3:40 PM97 °FPassing clouds.5 mph42%29.77 "Hg5 mi
3:10 PM97 °FPassing clouds.7 mph44%29.77 "Hg5 mi
2:40 PM97 °FPassing clouds.5 mph42%29.77 "Hg5 mi
2:10 PM95 °FScattered clouds.6 mph47%29.80 "Hg4 mi
1:40 PM95 °FScattered clouds.5 mph47%29.80 "Hg4 mi
1:10 PM95 °FScattered clouds.6 mph44%29.83 "Hg3 mi
12:40 PM95 °FScattered clouds.7 mph44%29.83 "Hg3 mi
12:10 PM93 °FScattered clouds.6 mph49%29.86 "Hg3 mi
11:40 AM91 °FScattered clouds.2 mph52%29.89 "Hg3 mi
11:10 AM90 °FScattered clouds.5 mph63%29.89 "Hg3 mi
10:40 AM88 °FScattered clouds.5 mph66%29.89 "Hg3 mi
10:10 AM88 °FScattered clouds.3 mph66%29.92 "Hg3 mi
9:10 AM86 °FScattered clouds.2 mph75%29.92 "Hg2 mi
8:40 AM84 °FScattered clouds.2 mph79%29.92 "Hg2 mi
8:10 AM82 °FScattered clouds.2 mph79%29.89 "Hg2 mi
7:40 AM81 °FHaze.2 mph84%29.89 "Hg2 mi
7:10 AM79 °FHaze.2 mph89%29.89 "Hg2 mi
6:40 AM79 °FHaze.2 mph89%29.86 "Hg2 mi
6:10 AM79 °FHaze.3 mph84%29.86 "Hg2 mi
5:40 AM79 °FHaze.3 mph84%29.83 "Hg3 mi
5:10 AM79 °FHaze.3 mph84%29.86 "Hg3 mi
4:40 AM79 °FHaze.No wind89%29.83 "Hg3 mi
3:40 AM81 °FHaze.No wind84%29.83 "Hg3 mi
3:10 AM81 °FHaze.No wind84%29.83 "Hg3 mi
2:40 AM81 °FHaze.No wind84%29.83 "Hg3 mi
1:40 AM82 °FPassing clouds.No wind79%29.83 "Hg4 mi
1:10 AM82 °FPassing clouds.2 mph79%29.86 "Hg4 mi
12:40 AM82 °FPassing clouds.2 mph79%29.86 "Hg4 mi
12:10 AM82 °FPassing clouds.2 mph79%29.89 "Hg4 mi
11:40 PM
Oct 1
82 °FPassing clouds.2 mph79%29.89 "Hg4 mi
11:10 PM82 °FPassing clouds.2 mph79%29.89 "Hg4 mi
Weather by CustomWeather, © 2014

See weather overviewHow to use our weather pages